sat.trackr.live / text

‹ back to catalog

FLOCK 4H-24

NORAD 66727 · 2025-276BP

PAYLOAD ACTIVE UNKNOWN

§ Identity

Operator
Country
US
Launch date
2025-11-28
Launch site
AFWTR
Launch vehicle
Mass (kg)
RCS (m²)

Purposes: earth_obs

External: N2YO · Heavens-Above · Gunter

§ Orbital elements

Epoch: 2026-09-18T03:29:13.080192Z

Period
94.68 min
Inclination
97.4156°
Eccentricity
0.0005128
Mean motion
15.20891438 rev/d
Perigee alt
499.6 km
Apogee alt
506.7 km
Semi-major
6,881.3 km
B*
2.2275e-4
RAAN
333.2931°
Arg perigee
61.6320°
Mean anomaly
298.5432°
Rev number
4,454

§ Raw data

FLOCK 4H-241 66727U 25276BP  26261.14529028  .00004856  00000+0  22275-3 0  99912 66727  97.4156 333.2931 0005128  61.6320 298.5432 15.20891438 44541

JSON: /api/v1/satellites/66727 · /tle

For live sub-satellite position, see the globe view (requires WebGL).

§ Visibility from observer

Set your observer location to see the next 7 days of passes ≥ 10°. The values pass through the URL so the page stays shareable.

No JS? Fill the form by hand. The geolocation button needs JavaScript.